Volver al catálogo

STARLINK-35130

ActivoComunicacionesVLEO
NORAD 65740·PAYLOAD·🇺🇸 United States

Lanzado Sep 25, 2025 desde Cape Canaveral Space Force Station

Loading…

Próximos Pases (próximas 24 horas)

TLE

ActualizadoSource: CelesTrak SupGP

Época: Sep 14, 2026, 22:55 UTC

1 65740C 25216G   26257.95534722 -.00045966  00000+0 -13577-2 0  2570
2 65740  53.1570 171.9375 0001295  89.1717  29.4237 15.34422472    10

Sigue STARLINK-35130 en tiempo real con AllMySat

Download on the App Store